Wind_Speed
26 30 31 32 34 35 37 37 36 35 35 35 34 34 33 32 32 32 32 33 33 33 33 32 32 31 31 32 33 33 33 33 33 33 33 33 34 34 34 34 34 34 34
24 27 31 32 33 34 36 38 36 36 36 35 33 33 32 32 32 33 34 34 34 34 34 34 32 32 33 33 34 34 34 35 35 34 34 34 34 35 35 35 35 36 36
25 26 28 30 31 33 33 36 36 34 34 36 35 34 32 30 31 33 34 35 35 34 35 34 33 33 33 34 35 35 36 36 36 36 36 36 36 36 36 36 36 37 37
24 25 25 27 28 31 32 34 35 35 33 34 35 35 31 31 32 33 34 34 35 34 34 34 34 34 35 36 36 37 37 37 37 38 37 37 36 36 36 37 37 38 38
23 25 24 26 27 28 30 32 32 33 32 31 32 32 31 32 32 32 32 33 33 33 33 34 35 35 36 36 36 37 38 38 38 38 38 38 38 37 37 37 38 40 40
22 24 24 24 27 28 28 29 30 31 32 32 31 30 30 31 31 32 32 33 34 34 34 33 34 35 36 37 37 37 39 39 39 39 39 40 40 40 40 40 40 40 41
19 23 25 24 26 28 27 29 30 31 31 31 31 31 31 32 32 33 33 34 34 34 34 34 34 36 38 39 39 39 39 39 39 40 40 40 41 42 42 42 42 42 42
18 20 23 25 26 28 27 28 29 30 31 31 32 33 34 34 34 34 34 35 35 35 35 35 36 37 38 39 40 40 40 41 41 41 41 42 42 43 44 44 44 44 44
17 19 22 25 26 27 27 27 29 30 30 31 32 33 34 34 35 35 36 36 36 36 36 37 37 38 39 39 40 41 41 42 43 43 44 45 45 45 45 46 46 47 46
16 18 21 24 26 27 28 28 29 29 30 31 31 32 32 33 34 36 37 37 38 38 38 39 40 40 41 41 42 42 43 44 44 45 46 46 46 46 47 48 49 49 50
15 18 20 23 25 27 29 29 30 30 31 32 33 33 33 33 34 35 36 37 38 39 40 41 42 42 42 43 43 43 44 44 45 46 47 48 48 47 48 49 50 51 52
15 17 19 21 23 26 28 29 30 31 32 33 34 35 35 35 35 36 36 37 39 40 41 42 43 43 43 44 44 44 45 45 46 47 48 49 50 50 50 51 51 52 52
16 17 19 21 22 24 26 29 31 31 32 33 35 36 36 37 37 38 38 39 39 41 42 43 44 44 44 44 45 46 46 47 47 48 49 49 50 51 51 52 52 53 53
18 20 22 23 24 25 26 28 31 32 33 34 36 37 37 38 39 39 39 40 41 43 44 45 45 46 46 46 46 47 47 48 49 49 49 50 51 52 52 52 52 53 53
21 22 24 25 26 27 28 31 33 34 35 36 37 38 39 40 41 42 42 43 44 45 46 46 47 47 47 47 47 48 49 49 49 50 50 51 52 52 53 53 53 53 53
23 25 26 27 28 29 31 32 34 35 36 37 38 39 40 42 43 44 45 46 46 47 47 48 48 48 48 48 49 49 49 50 50 50 51 51 52 53 53 53 54 54 54
27 28 29 29 30 32 33 34 35 36 37 38 39 41 42 43 44 45 46 46 47 48 48 49 49 49 49 49 49 49 49 50 50 51 52 52 53 53 53 53 53 54 53
30 31 32 33 34 35 36 36 37 38 40 40 41 42 43 44 45 46 47 47 48 49 49 49 49 49 50 50 50 50 51 51 52 52 52 53 53 54 54 53 53 53 54
34 35 35 36 37 38 39 40 40 41 42 43 44 45 45 46 46 47 48 49 49 50 50 50 50 50 50 51 51 52 52 52 52 52 52 53 54 54 55 55 54 54 55
37 38 39 39 40 41 42 42 43 44 44 45 46 47 47 48 48 49 49 50 50 51 51 51 51 51 52 52 53 53 53 53 53 53 53 54 54 54 55 55 54 55 54
40 41 41 42 43 43 44 44 44 45 47 48 48 49 50 50 51 51 52 52 52 52 52 52 52 52 53 53 53 53 53 53 53 53 53 53 54 54 54 54 55 54 55
43 44 45 45 45 45 46 46 46 47 48 49 50 50 51 52 52 52 53 53 52 53 53 53 53 53 53 54 54 53 53 53 53 52 53 53 53 53 53 53 53 53 54
46 46 46 45 45 46 47 47 47 47 48 49 49 50 51 52 53 53 53 53 53 53 53 54 53 54 54 53 53 53 53 52 52 52 52 52 52 52 53 52 52 52 52
46 46 45 45 45 46 46 47 47 47 48 49 49 50 51 51 52 52 53 53 53 53 53 53 53 53 53 53 53 52 52 52 52 51 51 51 52 52 51 51 51 51 51
46 46 46 46 46 46 47 47 48 48 48 48 49 50 51 51 51 51 51 52 52 52 52 53 53 52 52 53 52 51 51 50 51 51 51 50 50 50 50 50 50 50 50
47 47 47 47 47 47 48 48 48 49 49 49 49 50 50 50 50 50 50 50 51 51 51 52 52 52 52 51 51 50 49 49 50 50 49 49 49 49 49 49 49 49 49
Wind_Direction
210 212 214 216 217 219 220 219 217 219 220 221 226 229 233 236 240 242 245 246 248 249 252 255 259 262 264 265 265 268 271 272 274 276 277 278 279 279 280 281 282 283 283
213 212 213 215 217 220 222 222 221 220 222 224 228 230 235 238 244 246 246 249 251 251 254 256 260 264 266 267 268 270 273 273 273 275 277 277 278 279 280 281 282 282 283
215 215 215 216 217 220 221 222 223 223 224 226 229 231 238 242 246 248 248 249 250 252 255 259 262 265 267 268 269 271 272 273 273 275 277 278 277 280 281 281 281 282 282
216 216 217 219 218 218 220 220 221 223 226 228 230 233 241 243 247 250 250 251 252 255 258 262 264 266 268 269 270 271 272 273 273 274 276 277 279 280 281 281 281 282 283
219 219 219 222 221 220 219 220 224 225 226 228 232 237 243 245 247 250 253 255 256 258 261 265 265 267 269 270 272 273 274 275 275 276 276 277 279 280 281 281 281 281 282
227 226 224 223 223 221 221 225 227 228 231 234 237 241 246 246 248 251 255 257 259 262 265 266 268 269 270 272 274 275 276 277 277 277 277 278 278 279 280 281 281 281 282
234 233 230 228 225 225 228 229 231 233 235 238 242 245 249 249 250 253 254 258 262 264 265 267 268 270 272 273 275 276 275 276 276 277 277 278 279 279 280 281 282 282 283
238 237 235 233 231 232 236 235 234 235 237 239 244 247 249 250 252 254 256 259 261 264 266 267 268 270 271 273 275 275 275 275 275 276 277 279 279 279 280 281 281 282 282
246 244 240 238 237 239 240 237 238 239 241 243 246 247 249 252 254 257 259 261 263 265 268 270 271 272 273 274 275 276 275 276 276 276 277 277 278 279 279 280 280 281 281
253 252 250 246 244 245 243 241 242 243 244 245 246 249 252 254 257 260 262 263 265 268 271 273 273 274 274 275 276 277 277 276 277 277 277 277 277 278 279 279 280 280 281
257 257 254 250 250 248 244 244 245 246 249 250 251 253 256 260 263 264 265 266 268 270 273 275 275 275 276 276 277 277 277 277 276 276 276 276 277 278 279 279 280 281 281
268 261 256 253 253 250 248 249 250 251 254 255 257 258 260 263 265 268 269 270 271 273 275 276 276 276 276 277 277 278 278 277 277 277 276 276 276 277 278 279 280 281 282
276 268 263 262 262 259 255 255 255 257 258 259 259 260 261 263 266 268 270 272 274 275 276 277 277 278 277 277 278 278 279 279 278 278 277 277 277 278 278 279 280 281 282
279 275 273 270 266 265 263 262 259 260 262 263 262 261 262 264 266 269 271 273 275 277 278 278 278 278 278 278 278 279 279 280 280 278 278 277 278 278 278 279 280 281 282
280 277 275 274 270 268 267 265 262 262 262 263 263 262 263 265 267 269 271 273 275 276 277 278 278 278 278 278 278 278 279 279 279 279 279 278 278 279 279 279 280 281 282
281 279 278 277 274 272 270 268 266 264 264 264 265 265 265 266 268 270 272 274 276 277 277 277 278 278 278 279 278 279 279 279 279 280 279 279 279 279 279 280 280 281 283
281 280 279 279 277 275 273 271 269 268 267 267 267 267 267 268 270 272 274 275 277 277 278 278 278 279 279 279 280 280 281 281 281 280 280 280 280 280 280 280 281 282 283
281 279 278 277 277 275 274 272 270 269 268 269 269 270 270 270 272 273 274 275 277 278 278 278 278 279 279 280 280 281 282 282 282 281 281 280 280 280 280 280 281 281 282
281 280 279 278 277 276 275 274 273 271 270 270 270 270 271 271 273 274 276 276 277 278 278 279 279 279 279 280 280 281 282 282 282 281 281 281 280 280 281 281 281 281 282
282 281 280 279 278 277 276 275 274 273 272 272 272 272 272 273 274 275 276 277 277 278 279 279 279 280 280 281 281 282 283 282 282 281 281 282 281 281 281 281 281 281 281
282 281 280 279 278 277 276 275 274 274 273 273 273 273 273 274 275 275 276 277 278 278 278 279 279 280 280 281 282 282 283 282 282 282 282 281 281 282 282 282 282 282 282
282 282 281 280 278 277 276 276 275 274 274 274 273 273 273 274 275 276 277 278 278 278 278 279 279 280 281 281 282 282 282 282 283 282 282 282 281 281 282 282 282 283 283
283 283 282 281 279 277 277 277 276 276 275 274 274 273 274 275 276 277 277 277 278 279 279 279 280 280 281 282 282 282 282 282 282 283 283 282 282 282 283 282 282 283 283
283 283 282 280 279 278 278 278 277 277 277 276 276 275 275 276 277 277 278 278 278 279 279 279 280 281 281 282 282 282 282 282 282 283 283 283 283 283 283 282 282 283 283
283 282 281 281 280 279 279 278 278 278 278 278 278 277 277 278 278 278 278 278 278 279 279 280 280 281 281 282 282 282 282 282 282 282 283 283 283 283 283 283 283 283 283
283 282 282 281 280 280 279 279 279 279 279 279 279 279 279 279 279 279 279 280 280 280 281 281 282 282 282 282 281 282 282 282 282 283 284 283 283 283 283 284 284 284 284
Height
5688 5693 5698 5704 5711 5716 5722 5727 5732 5737 5742 5748 5752 5757 5762 5765 5769 5772 5774 5777 5779 5782 5784 5786 5787 5789 5790 5791 5792 5792 5793 5793 5793 5793 5792 5791 5791 5790 5789 5789 5788 5787 5786
5686 5691 5696 5702 5708 5713 5718 5723 5729 5734 5739 5743 5748 5752 5756 5760 5763 5766 5769 5771 5773 5776 5777 5779 5781 5782 5783 5784 5785 5785 5785 5785 5785 5785 5784 5784 5784 5782 5781 5781 5780 5779 5778
5685 5689 5694 5700 5705 5710 5715 5720 5725 5730 5734 5739 5743 5747 5751 5754 5757 5760 5763 5765 5767 5769 5771 5772 5774 5775 5776 5777 5777 5778 5778 5777 5777 5777 5777 5776 5775 5774 5774 5772 5771 5770 5769
5684 5688 5692 5697 5702 5707 5711 5716 5721 5725 5730 5734 5738 5742 5746 5749 5752 5754 5756 5758 5761 5762 5764 5765 5767 5768 5768 5769 5769 5769 5769 5769 5769 5768 5768 5767 5766 5766 5765 5764 5762 5761 5760
5683 5686 5690 5694 5699 5703 5708 5713 5717 5721 5725 5729 5733 5737 5741 5744 5746 5748 5750 5752 5754 5755 5757 5758 5759 5760 5760 5761 5761 5761 5761 5760 5760 5759 5758 5758 5757 5756 5755 5755 5753 5752 5750
5681 5684 5688 5691 5696 5701 5705 5709 5713 5717 5721 5725 5729 5732 5735 5738 5740 5742 5744 5746 5747 5748 5749 5750 5751 5752 5752 5752 5752 5752 5751 5751 5750 5749 5749 5748 5747 5746 5745 5744 5743 5742 5740
5680 5683 5686 5689 5694 5698 5702 5706 5710 5713 5717 5720 5723 5726 5729 5732 5734 5735 5737 5738 5740 5741 5742 5742 5742 5743 5743 5743 5743 5742 5742 5741 5740 5739 5739 5738 5737 5736 5735 5734 5733 5732 5730
5679 5681 5684 5687 5691 5695 5698 5702 5705 5708 5712 5715 5718 5720 5723 5725 5727 5728 5730 5731 5732 5733 5733 5733 5733 5733 5733 5733 5733 5732 5732 5731 5730 5729 5729 5728 5727 5726 5724 5723 5722 5721 5719
5677 5679 5681 5684 5688 5692 5695 5698 5700 5703 5706 5709 5712 5714 5716 5718 5720 5721 5722 5723 5723 5724 5724 5724 5724 5724 5723 5723 5722 5722 5721 5720 5719 5718 5718 5717 5716 5714 5713 5712 5711 5710 5708
5675 5677 5679 5681 5684 5687 5690 5693 5695 5698 5700 5703 5705 5707 5709 5710 5711 5712 5713 5714 5715 5715 5715 5714 5714 5713 5713 5712 5711 5710 5709 5709 5708 5707 5706 5705 5704 5702 5701 5700 5698 5697 5696
5672 5674 5675 5678 5680 5682 5685 5687 5689 5692 5694 5696 5698 5700 5701 5702 5703 5704 5704 5705 5705 5705 5705 5704 5704 5703 5702 5701 5700 5699 5698 5697 5696 5694 5693 5693 5691 5690 5688 5687 5685 5684 5682
5668 5669 5671 5673 5675 5677 5679 5681 5683 5685 5687 5689 5690 5691 5693 5694 5695 5695 5695 5695 5695 5695 5694 5693 5692 5691 5690 5689 5688 5687 5686 5684 5683 5682 5680 5679 5678 5677 5675 5674 5672 5670 5668
5665 5665 5666 5668 5669 5671 5673 5674 5676 5678 5680 5681 5682 5683 5684 5685 5685 5685 5685 5685 5684 5684 5683 5682 5681 5679 5678 5677 5675 5674 5673 5671 5670 5668 5667 5666 5664 5663 5662 5660 5658 5656 5654
5661 5661 5661 5662 5663 5665 5666 5667 5669 5670 5672 5673 5673 5674 5674 5675 5675 5675 5674 5674 5674 5673 5672 5670 5669 5668 5666 5664 5663 5661 5660 5658 5657 5655 5653 5652 5651 5649 5648 5646 5644 5642 5640
5657 5657 5656 5656 5657 5658 5658 5660 5661 5662 5663 5664 5664 5664 5664 5665 5664 5664 5664 5663 5662 5661 5660 5658 5656 5655 5653 5651 5650 5648 5646 5645 5643 5641 5640 5638 5637 5635 5633 5632 5630 5628 5626
5651 5651 5650 5650 5650 5650 5651 5652 5652 5653 5653 5654 5654 5654 5654 5654 5654 5653 5652 5651 5650 5648 5647 5645 5643 5642 5640 5638 5636 5634 5633 5631 5629 5628 5626 5624 5622 5620 5619 5617 5615 5613 5611
5645 5644 5643 5643 5642 5642 5642 5642 5642 5642 5643 5643 5643 5643 5643 5642 5642 5641 5640 5638 5637 5635 5634 5632 5630 5628 5626 5624 5622 5620 5619 5617 5615 5613 5612 5610 5608 5606 5604 5602 5600 5599 5596
5637 5636 5635 5634 5634 5633 5632 5632 5632 5632 5632 5632 5631 5631 5630 5630 5629 5628 5627 5625 5623 5622 5620 5618 5616 5614 5612 5610 5608 5606 5605 5603 5601 5598 5596 5595 5592 5590 5589 5587 5586 5584 5582
5628 5627 5626 5625 5623 5622 5621 5621 5620 5620 5620 5619 5619 5618 5617 5617 5616 5614 5613 5612 5610 5608 5606 5604 5602 5601 5598 5596 5594 5592 5590 5588 5586 5584 5581 5579 5577 5575 5573 5572 5571 5569 5567
5618 5617 5615 5614 5612 5611 5610 5609 5608 5607 5607 5606 5605 5605 5604 5603 5602 5601 5599 5597 5596 5594 5592 5590 5588 5586 5584 5582 5579 5577 5575 5573 5571 5568 5566 5564 5561 5559 5557 5556 5555 5553 5551
5607 5605 5603 5602 5600 5599 5598 5597 5596 5594 5593 5592 5592 5591 5589 5588 5587 5586 5584 5583 5581 5580 5578 5576 5574 5571 5569 5567 5564 5562 5560 5557 5555 5553 5551 5548 5546 5544 5542 5540 5539 5537 5535
5594 5592 5590 5589 5587 5586 5584 5584 5582 5581 5580 5579 5577 5576 5575 5574 5572 5571 5569 5567 5566 5564 5562 5560 5559 5556 5554 5551 5549 5546 5544 5542 5540 5538 5535 5533 5531 5529 5527 5525 5523 5521 5519
5581 5579 5576 5575 5573 5572 5570 5570 5569 5567 5566 5564 5563 5561 5560 5559 5557 5555 5554 5552 5550 5549 5547 5545 5543 5541 5539 5536 5533 5531 5529 5526 5524 5522 5520 5518 5516 5514 5512 5510 5507 5505 5503
5567 5565 5562 5561 5560 5558 5556 5555 5554 5553 5551 5550 5549 5547 5545 5544 5542 5540 5538 5537 5535 5533 5531 5529 5528 5526 5524 5521 5519 5516 5514 5512 5510 5508 5506 5503 5501 5499 5496 5494 5492 5490 5488
5553 5551 5549 5547 5546 5544 5542 5541 5540 5538 5537 5536 5534 5532 5530 5529 5527 5525 5523 5522 5520 5518 5516 5514 5512 5510 5509 5506 5504 5501 5499 5497 5495 5493 5491 5489 5487 5484 5482 5479 5477 5475 5473
5539 5537 5535 5533 5531 5529 5528 5527 5525 5524 5523 5521 5519 5517 5516 5514 5512 5511 5509 5507 5505 5503 5501 5499 5497 5495 5493 5491 5489 5487 5485 5482 5480 5478 5477 5475 5472 5470 5467 5465 5463 5460 5458